Showing default

COSMOS 2491, 39497

Orbit data source: Space-Track

COSMOS 2491, 39497 is a payload satellite owned by TsNIIKhM (CIS) in LEO that was launched on Wed, 25 Dec 2013 UTC via an ROKOT launch vehicle from the Plesetsk Missile And Space Complex (PKMTR). Payload-class satellites include a variety of spacecraft equipped with specific instruments for various scientific and technological missions. These include communications satellites like Starlink; space stations such as the ISS; scientific satellites like the Hubble; Earth observation satellites from companies like Planet Labs, Umbra, and HawkEye 360; GPS; miniature CubeSats for education and research; and military/defense satellites.

Loading next visibility...
Identifier
39497, 2013-076E
Orbit
LEO
Country
Flag of CISCIS
Related business
Manufacturer
TsNIIKhM
Mission
Non-operational Defense Technology
Bus & Motor
NIVELIR, Unknown motor
Mass
~100 kg wet, ~100 kg dry
Launch date (UTC)
2013-12-25 (12 years ago)
Launch vehicle
ROKOT
Launch site
Plesetsk Missile And Space Complex (PKMTR)
Object type
Payload
Rocket body
Debris
Shape & HBR
Hex Box, 0.5 m
Radar Cross Section
0.900 m², Medium (>0.1 m² and < 1m²)

Expand to show TLE details & history
Last TLE update: 9 hours ago

TLE from 9 hours ago
0 COSMOS 2491
1 39497U 13076E   25286.65560253  .00000016  00000-0  47953-4 0  9993
2 39497  82.4853 322.0135 0011799 267.9041  92.0687 12.43491501534617
Epoch: 2025-10-13T15:44Z
TLE epoch observation values (Epoch: 2025-10-13T15:44:04.058Z)
Latitude
-0.00011°
Longitude
63.54132°
Altitude
1,494.883 km
Speed
7.117 km/s
True Right ascension
21h 28m 03s
True Declination
0° 00' 00"
Sunlit
Object was in daylight at epoch
Visualization orbit readout
Latitude
Unknown
Longitude
Unknown
Altitude
Unknown
Speed
Unknown
Apparent Right ascension
Unknown
Apparent Declination
Unknown
Sunlit
N/A
Visualization observer readout
Local Sidereal Time
19:06:05
Azimuth
Unknown
Elevation
Unknown
Doppler factor
Unknown
Orbital elements
Apogee altitude
1,498.471 km
Perigee altitude
1,479.905 km
Semi-major axis
7,867.325 km
Eccentricity
0.00118
Inclination
82.4853°
RAAN
322.0135°
Arg. of periapsis
267.9041°
True anomaly
92.20381°
Mean anomaly
92.0687°
Eccentric anomaly
92.13626°
Mean motion
3.1103 °/min
Orbital period
115.74 mins
BSTAR
0.000047953
Loading maneuver chart data...
Computing Atmospheric mass density...
Loading historical data...
Loading historical data...
Loading historical data...
Loading historical data...
Loading historical data...
Loading historical data...
Loading historical data...

Documentation

Showing up to 5 results
|